CST,Max TemperatureF,Mean TemperatureF,Min TemperatureF,Max Dew PointF,MeanDew PointF,Min DewpointF,Max Humidity, Mean Humidity, Min Humidity, Max Sea Level PressureIn, Mean Sea Level PressureIn, Min Sea Level PressureIn, Max VisibilityMiles, Mean VisibilityMiles, Min VisibilityMiles, Max Wind SpeedMPH, Mean Wind SpeedMPH, Max Gust SpeedMPH,PrecipitationIn, CloudCover, Events, WindDirDegrees
2014-2-1,20,14,7,16,9,2,92,81,69,30.17,30.01,29.91,10,5,1,16,9,20,0.19,6,Snow,8
2014-2-2,11,1,-9,5,-5,-10,95,77,58,30.39,30.33,30.20,10,10,10,16,5,18,0.00,1,,296
2014-2-3,13,1,-11,5,-3,-14,100,83,66,30.42,30.39,30.35,10,10,5,13,6,15,0.00,1,,191
2014-2-4,16,11,5,12,7,1,88,79,70,30.44,30.32,30.17,10,5,1,18,9,25,0.07,7,Snow,33
2014-2-5,16,6,-4,12,5,-9,92,82,71,30.53,30.34,30.14,10,6,1,21,12,25,0.04,7,Snow,342
2014-2-6,1,-5,-11,-4,-10,-15,86,78,69,30.54,30.48,30.41,10,10,10,21,11,24,0.00,2,,269
2014-2-7,10,-1,-13,0,-6,-14,92,78,63,30.41,30.37,30.32,10,10,10,17,10,20,0.00,0,,226
2014-2-8,12,7,2,10,6,-1,95,86,76,30.30,30.16,30.06,10,4,0,14,6,15,0.12,7,Snow,165
2014-2-9,12,2,-8,9,-4,-9,100,81,61,30.39,30.25,30.13,10,6,2,18,8,21,0.00,1,,288
2014-2-10,5,-7,-19,-7,-11,-19,95,78,60,30.55,30.49,30.39,10,10,10,16,8,20,0.00,0,,295
2014-2-11,6,-6,-18,-3,-10,-21,83,75,66,30.57,30.47,30.34,10,10,10,17,8,20,0.00,0,,153
2014-2-12,17,8,-1,13,7,-5,100,88,75,30.31,30.13,29.98,10,6,1,17,8,20,0.07,7,Snow,176
2014-2-13,35,22,9,28,14,5,88,81,73,29.95,29.70,29.49,10,7,1,33,18,42,0.01,5,Snow,223
2014-2-14,18,11,3,8,4,1,91,76,61,30.07,29.88,29.72,10,10,10,20,11,25,0.00,2,,333
2014-2-15,16,6,-5,14,9,-7,95,81,66,30.09,29.96,29.87,10,5,0,18,9,22,0.08,6,Fog-Snow,184
2014-2-16,23,19,15,14,12,11,92,76,59,30.26,30.15,29.94,10,8,4,18,10,22,0.00,6,,18
2014-2-17,30,25,19,27,20,14,100,87,73,30.20,29.85,29.67,10,4,0,28,16,34,0.30,7,Fog-Snow,181
2014-2-18,44,28,12,32,25,14,100,79,57,29.93,29.73,29.62,10,10,10,23,13,28,0.00,1,,218
2014-2-19,39,29,18,32,26,19,100,82,64,29.95,29.89,29.74,10,10,10,22,10,27,0.00,1,,218
2014-2-20,37,33,29,37,34,25,100,91,82,29.80,29.32,29.04,10,5,0,39,20,49,0.49,8,Fog-Rain-Snow-Thunderstorm,127
2014-2-21,29,23,17,22,14,11,92,76,60,29.88,29.58,29.31,10,8,1,45,25,54,0.05,4,Snow,265
2014-2-22,23,18,12,13,9,5,80,71,62,30.17,30.04,29.89,10,10,10,17,11,24,0.00,2,,289
2014-2-23,18,13,8,7,4,0,76,67,58,30.32,30.28,30.17,10,10,10,24,15,29,0.00,0,,301
2014-2-24,15,9,2,8,5,-2,91,75,59,30.37,30.31,30.24,10,8,2,20,10,22,0.01,4,Snow,294
2014-2-25,11,5,-2,7,-2,-8,91,77,63,30.35,30.31,30.24,10,9,3,24,13,29,T,2,,301
2014-2-26,17,3,-12,8,-5,-16,79,69,58,30.36,30.02,29.68,10,10,6,39,17,50,T,1,,262
2014-2-27,9,1,-7,-5,-13,-17,68,54,40,30.22,30.13,29.85,10,10,10,32,10,43,0.00,0,,318
2014-2-28,25,10,-6,21,9,-14,100,79,58,30.18,30.04,29.94,10,7,1,23,12,27,0.10,6,Snow,94